FW9327 Weather Reports


Display with metric or nautical units.
time (UTC)temp
F
wind
direction
speed
MPH
gust
MPH
rain 1hr
in
rain 24hr
in
rain mn
in
humidity
%
barometer
mb
20260903180101 90 0 1.0 5.0 0.00 0.00 0.00 63 1014.3
20260903174559 90 0 1.0 4.0 0.00 0.00 0.00 64 1014.5
20260903173104 89 5 1.0 5.0 0.00 0.00 0.00 64 1014.8
20260903171603 89 5 2.0 9.0 0.00 0.00 0.00 64 1014.9
20260903170208 88 9 1.0 3.0 0.00 0.00 0.00 66 1014.8
20260903164605 88 9 1.0 9.0 0.00 0.00 0.00 66 1014.7
20260903163104 87 5 1.0 5.0 0.00 0.00 0.00 69 1014.7
20260903161619 89 0 0.0 3.0 0.00 0.00 0.00 68 1014.4
20260903160106 91 5 0.0 4.0 0.00 0.00 0.00 66 1013.8
20260903154605 90 5 2.0 6.0 0.00 0.00 0.00 67 1013.7
20260903153100 90 5 1.0 5.0 0.00 0.00 0.00 69 1013.6
20260903151604 89 5 1.0 5.0 0.00 0.00 0.00 69 1013.5
20260903150105 88 5 1.0 6.0 0.00 0.00 0.00 71 1013.6
20260903144559 87 5 2.0 6.0 0.00 0.00 0.00 70 1013.5
20260903143058 86 5 2.0 7.0 0.00 0.00 0.00 73 1013.6
20260903141557 85 5 2.0 5.0 0.00 0.00 0.00 73 1013.5
20260903140101 84 5 2.0 5.0 0.00 0.00 0.00 77 1013.4
20260903134600 82 0 1.0 3.0 0.00 0.00 0.00 81 1013.5
20260903133100 81 5 1.0 4.0 0.00 0.00 0.00 84 1013.5
20260903131606 79 5 1.0 4.0 0.00 0.00 0.00 90 1013.5
20260903124623 75 0 0.0 2.0 0.00 0.00 0.00 95 1013.7
20260903123058 74 5 0.0 3.0 0.00 0.00 0.00 95 1013.7
20260903121555 73 0 0.0 2.0 0.00 0.00 0.00 95 1013.8
20260903120056 72 0 0.0 3.0 0.00 0.00 0.00 95 1013.8
20260903114608 72 0 0.0 2.0 0.00 0.00 0.00 95 1013.5
20260903113108 72 0 0.0 0.0 0.00 0.00 0.00 94 1013.6
20260903111602 73 0 0.0 1.0 0.00 0.00 0.00 95 1013.4
20260903110106 73 360 0.0 2.0 0.00 0.00 0.00 95 1013.5
20260903104603 73 360 0.0 3.0 0.00 0.00 0.00 95 1013.4
20260903103100 73 0 0.0 3.0 0.00 0.00 0.00 95 1013.5
20260903101559 73 0 0.0 2.0 0.00 0.00 0.00 95 1013.4
20260903100107 73 0 0.0 3.0 0.00 0.00 0.00 95 1013.4
20260903094607 73 0 0.0 3.0 0.00 0.00 0.00 95 1013.4
20260903093107 72 0 0.0 2.0 0.00 0.00 0.00 95 1013.2
20260903091557 72 0 0.0 0.0 0.00 0.00 0.00 95 1013.2
20260903090122 73 0 0.0 0.0 0.00 0.00 0.00 95 1013.3
20260903084620 73 0 0.0 1.0 0.00 0.00 0.00 95 1013.2
20260903083108 73 0 0.0 1.0 0.00 0.00 0.00 95 1013.2
20260903081620 73 0 0.0 1.0 0.00 0.00 0.00 95 1013.2
20260903080055 73 0 0.0 1.0 0.00 0.00 0.00 94 1013.3
20260903074605 73 0 0.0 1.0 0.00 0.00 0.00 94 1013.3
20260903073104 73 0 0.0 0.0 0.00 0.00 0.00 94 1013.3
20260903071553 73 0 0.0 1.0 0.00 0.00 0.00 94 1013.3
20260903070058 74 0 0.0 0.0 0.00 0.00 0.00 94 1013.4
20260903064603 74 0 0.0 0.0 0.00 0.00 0.00 94 1013.2
20260903063103 74 0 0.0 0.0 0.00 0.00 0.00 93 1013.4
20260903061601 74 0 0.0 1.0 0.00 0.00 0.00 93 1013.4
20260903060059 75 0 0.0 0.0 0.00 0.00 0.00 93 1013.5
20260903054601 75 0 0.0 1.0 0.00 0.00 0.00 93 1013.4
20260903053107 75 0 0.0 1.0 0.00 0.00 0.00 92 1013.3
20260903051600 75 0 0.0 1.0 0.00 0.00 0.00 92 1013.2
20260903050106 76 0 0.0 0.0 0.00 0.00 0.00 92 1013.2
20260903044604 76 0 0.0 1.0 0.00 0.00 0.00 92 1013.3
20260903043058 76 0 0.0 2.0 0.00 0.00 0.00 92 1013.2
20260903041626 76 0 0.0 1.0 0.00 0.00 0.00 90 1013.2
20260903040107 76 0 0.0 1.0 0.00 0.00 0.00 89 1013.2
20260903034600 77 0 0.0 1.0 0.00 0.00 0.00 88 1012.9
20260903033056 78 0 0.0 0.0 0.00 0.00 0.00 87 1013.0
20260903031555 79 0 0.0 1.0 0.00 0.00 0.00 86 1012.9
20260903030059 79 0 0.0 2.0 0.00 0.00 0.00 87 1012.8
20260903024555 79 0 0.0 2.0 0.00 0.00 0.00 87 1012.9
20260903023051 79 0 0.0 4.0 0.00 0.00 0.00 88 1012.9
20260903021559 78 0 0.0 2.0 0.00 0.00 0.00 88 1012.8
20260903020104 78 0 0.0 3.0 0.00 0.00 0.00 88 1012.6
20260903014606 78 0 0.0 1.0 0.00 0.00 0.00 87 1012.5
20260903013056 78 0 0.0 4.0 0.00 0.00 0.00 86 1012.5
20260903011554 79 0 0.0 1.0 0.00 0.00 0.00 85 1012.2
20260903004557 82 0 0.0 1.0 0.00 0.00 0.00 80 1012.3
20260903003057 83 0 0.0 2.0 0.00 0.00 0.00 77 1012.2
20260903001557 85 0 1.0 4.0 0.00 0.00 0.00 75 1012.3
20260903000100 85 0 0.0 3.0 0.00 0.00 0.00 74 1012.3
20260902234558 86 5 1.0 4.0 0.00 0.00 0.00 73 1012.3
20260902233104 87 9 0.0 4.0 0.00 0.00 0.00 72 1012.4
20260902231600 88 5 0.0 5.0 0.00 0.00 0.00 70 1012.5
20260902230108 89 5 0.0 8.0 0.00 0.00 0.00 70 1012.5
20260902224553 89 5 0.0 4.0 0.00 0.00 0.00 69 1012.5
20260902223111 91 5 1.0 4.0 0.00 0.00 0.00 66 1012.6
20260902221558 93 5 0.0 4.0 0.00 0.00 0.00 64 1012.7
20260902220053 94 5 2.0 10.0 0.00 0.00 0.00 59 1012.6
20260902214557 94 5 3.0 8.0 0.00 0.00 0.00 59 1012.7
20260902213106 94 5 2.0 9.0 0.00 0.00 0.00 60 1012.7
20260902211557 95 5 2.0 8.0 0.00 0.00 0.00 58 1012.8
20260902210103 95 5 3.0 9.0 0.00 0.00 0.00 58 1012.7
20260902204557 94 5 1.0 10.0 0.00 0.00 0.00 58 1012.7
20260902203055 95 5 2.0 6.0 0.00 0.00 0.00 58 1012.8
20260902201601 94 5 2.0 8.0 0.00 0.00 0.00 61 1012.9
20260902200056 94 5 2.0 6.0 0.00 0.00 0.00 60 1013.1
20260902194555 94 5 1.0 5.0 0.00 0.00 0.00 62 1013.1
20260902193113 95 5 2.0 6.0 0.00 0.00 0.00 60 1013.3
20260902191601 95 5 2.0 9.0 0.00 0.00 0.00 60 1013.3
20260902184620 95 9 2.0 8.0 0.00 0.00 0.00 60 1013.6
20260902183115 95 5 1.0 6.0 0.00 0.00 0.00 60 1013.6
20260902181555 94 5 0.0 8.0 0.00 0.00 0.00 62 1013.8